This demonstration page uses our WeatherBlox Daily Observations layout. Learn more.

Left ArrowRight Arrow

Hourly Observations for September 29, 2019

Temp ( °F °C ) Dew Point ( °F °C ) Humidity (%) Winds ( mph kmh ) Pressure ( in mb ) Visibility ( mi km ) Precip ( " mm )
12:15 am 00:15 Cloudy with Mist and Fog 56 13.4 56 13.4 100 100 ESE 8 13 29.89 1012 3 4 0.00 0.00
12:35 am 00:35 Cloudy with Mist and Fog 56 13.5 56 13.5 100 100 ESE 9 15 29.89 1012 4 6 0.00 0.00
12:55 am 00:55 Cloudy with Mist and Fog 56 13.5 56 13.5 100 100 ESE 12 19 29.88 1012 3 5 0.00 0.00
1:15 am 01:15 Cloudy with Mist and Fog 56 13.6 56 13.6 100 100 ESE 12 19 29.88 1012 4 6 0.00 0.00
1:35 am 01:35 Cloudy with Mist and Fog 56 13.6 56 13.6 100 100 SE 10 17 29.88 1012 2 2 0.01 0.25
1:55 am 01:55 Cloudy with Mist and Fog 57 13.7 57 13.7 100 100 ESE 12 19 29.88 1012 2 3 0.01 0.25
2:15 am 02:15 Cloudy with Mist and Fog 57 13.7 57 13.7 100 100 SE 14 22 29.88 1012 1 2 0.00 0.00
2:35 am 02:35 Cloudy with Mist and Fog 57 13.7 57 13.7 100 100 SE 13 20 29.87 1011 1 2 0.00 0.00
2:55 am 02:55 Cloudy with Mist and Fog 57 13.8 57 13.8 100 100 ESE 10 17 29.87 1011 1 2 0.00 0.00
3:15 am 03:15 Cloudy with Mist and Fog 57 14 57 14 100 100 ESE 10 17 29.85 1011 1 2 0.00 0.00
3:35 am 03:35 Cloudy with Mist and Fog 57 14 57 14 100 100 SE 10 17 29.84 1011 1 2 0.00 0.00
3:55 am 03:55 Cloudy with Mist and Fog 57 14 57 14 100 100 ESE 14 22 29.83 1010 1 2 0.00 0.00
4:15 am 04:15 Cloudy with Mist and Fog 57 14.1 57 14.1 100 100 SE 12 19 29.82 1010 1 1 0.00 0.00
4:35 am 04:35 Cloudy with Mist and Fog 58 14.2 58 14.2 100 100 SE 12 19 29.82 1010 1 1 0.00 0.00
4:55 am 04:55 Cloudy with Mist and Fog 58 14.4 58 14.4 100 100 SE 12 19 29.81 1010 1 2 0.00 0.00
5:15 am 05:15 Cloudy with Mist and Fog 58 14.6 58 14.6 100 100 SE 13 20 29.81 1009 1 2 0.00 0.00
5:35 am 05:35 Cloudy with Mist and Fog 58 14.7 58 14.7 100 100 SE 14 22 29.80 1009 1 2 0.00 0.00
5:55 am 05:55 Cloudy with Mist and Fog 59 15 59 15 100 100 SE 9 15 29.80 1009 1 2 0.00 0.00
6:15 am 06:15 Cloudy with Drizzle 60 15.3 60 15.3 100 100 SE 14 22 29.78 1009 1 2 0.00 0.00
6:35 am 06:35 Cloudy with Light Rain 60 15.5 60 15.5 100 100 SE 13 20 29.79 1009 2 2 0.00 0.00
6:55 am 06:55 Cloudy with Light Rain 60 15.7 60 15.7 100 100 SE 13 20 29.78 1008 2 2 0.00 0.00
7:15 am 07:15 Cloudy with Mist and Fog 60 15.8 60 15.8 100 100 SE 10 17 29.78 1008 1 2 0.00 0.00
7:35 am 07:35 Cloudy with Mist and Fog 61 16.1 61 16.1 100 100 SE 12 19 29.78 1008 1 2 0.00 0.00
7:55 am 07:55 Cloudy with Mist and Fog 62 16.7 62 16.7 100 100 SE 13 20 29.77 1008 1 1 0.00 0.00
8:15 am 08:15 Cloudy with Fog 62 16.8 62 16.8 100 100 SE 12 19 29.77 1008 1 1 0.00 0.00
8:35 am 08:35 Cloudy with Mist and Fog 64 17.5 64 17.5 100 100 SSE 15 24 29.75 1008 1 2 0.00 0.00
8:55 am 08:55 Cloudy with Mist and Fog 64 18 64 18 100 100 SE 15 24 29.75 1007 2 3 0.00 0.00
9:15 am 09:15 Cloudy with Mist and Fog 65 18.4 65 18.4 100 100 SSE 13 20 29.75 1007 3 4 0.00 0.00
9:35 am 09:35 Cloudy with Mist and Fog 66 19 66 19 100 100 SSE 14 22 29.73 1007 3 5 0.00 0.00
9:55 am 09:55 Cloudy with Mist and Fog 67 19.5 67 19.2 98 98 S 18 30 29.74 1007 5 8 0.00 0.00
10:15 am 10:15 Cloudy 68 19.8 67 19.4 98 98 SSE 17 28 29.72 1007 7 11 0.00 0.00
10:35 am 10:35 Cloudy 69 20.5 67 19.7 95 95 SSE 17 28 29.71 1006 7 11 0.00 0.00
10:55 am 10:55 Cloudy 71 21.4 68 20.2 93 93 SSE 20 31 29.69 1005 10 16 0.00 0.00
11:15 am 11:15 Cloudy 72 22 69 20.3 90 90 SSE 20 31 29.68 1005 10 16 0.00 0.00
11:35 am 11:35 Cloudy 73 22.7 69 20.5 87 87 SSE 14 22 29.66 1004 10 16 0.00 0.00
11:55 am 11:55 Cloudy 74 23.1 69 20.8 87 87 SSE 17 28 29.66 1004 10 16 0.00 0.00
12:15 pm 12:15 Cloudy 76 24.6 71 21.4 82 82 SSE 17 28 29.63 1004 10 16 0.00 0.00
12:35 pm 12:35 Cloudy 79 26 70 21.2 75 75 SSE 20 31 29.61 1003 10 16 0.00 0.00
12:55 pm 12:55 Mostly Cloudy 81 27.4 70 21 68 68 S 24 39 29.59 1002 10 16 0.00 0.00
1:15 pm 13:15 Partly Cloudy 84 29 69 20.6 61 61 S 21 33 29.57 1001 10 16 0.00 0.00
1:35 pm 13:35 Partly Cloudy 85 29.3 69 20.3 58 58 S 22 35 29.56 1001 10 16 0.00 0.00
1:55 pm 13:55 Mostly Cloudy 86 30 68 20.1 55 55 S 25 41 29.54 1000 10 16 0.00 0.00
2:15 pm 14:15 Mostly Cloudy 88 30.9 68 20 52 52 S 28 44 29.52 1000 10 16 0.00 0.00
2:35 pm 14:35 Partly Cloudy 89 31.5 67 19.3 48 48 S 29 46 29.50 999 10 16 0.00 0.00
2:55 pm 14:55 Sunny 89 31.9 67 19.6 48 48 S 28 44 29.49 999 10 16 0.00 0.00
3:15 pm 15:15 Partly Cloudy 90 32.2 67 19.7 48 48 S 24 39 29.48 998 10 16 0.00 0.00
3:35 pm 15:35 Mostly Cloudy 91 32.5 67 19.6 46 46 S 25 41 29.47 998 10 16 0.00 0.00
3:55 pm 15:55 Partly Cloudy 90 32.3 66 19 45 45 S 25 41 29.47 998 10 16 0.00 0.00
4:15 pm 16:15 Partly Cloudy 91 32.8 66 18.8 43 43 S 33 54 29.47 998 10 16 0.00 0.00
4:35 pm 16:35 Partly Cloudy 90 32.2 66 18.8 45 45 S 26 43 29.47 998 10 16 0.00 0.00
4:55 pm 16:55 Partly Cloudy 89 31.8 65 18.4 45 45 S 23 37 29.48 998 10 16 0.00 0.00
5:15 pm 17:15 Mostly Cloudy 89 31.7 66 19 47 47 S 28 44 29.48 998 10 16 0.00 0.00
5:35 pm 17:35 Partly Cloudy 88 31.3 67 19.3 49 49 S 25 41 29.48 998 10 16 0.00 0.00
5:55 pm 17:55 Sunny 88 31.1 66 19 49 49 S 21 33 29.48 998 10 16 0.00 0.00
6:15 pm 18:15 Partly Cloudy 87 30.7 66 19.1 50 50 S 22 35 29.50 999 10 16 0.00 0.00
6:35 pm 18:35 Partly Cloudy 87 30.3 67 19.2 51 51 S 23 37 29.49 999 10 16 0.00 0.00
6:55 pm 18:55 Sunny 85 29.7 67 19.4 54 54 S 23 37 29.49 999 10 16 0.00 0.00
7:15 pm 19:15 Sunny 84 28.9 67 19.5 57 57 SSE 22 35 29.51 999 10 16 0.00 0.00
7:35 pm 19:35 Clear 83 28.5 67 19.5 58 58 S 21 33 29.51 999 10 16 0.00 0.00
7:55 pm 19:55 Clear 82 27.9 66 19.1 59 59 SSE 17 28 29.53 1000 10 16 0.00 0.00
8:15 pm 20:15 Clear 82 27.7 66 19 59 59 S 22 35 29.54 1000 10 16 0.00 0.00
8:35 pm 20:35 Clear 81 27.3 66 19 61 61 SSE 17 28 29.54 1000 10 16 0.00 0.00
8:55 pm 20:55 Clear 80 26.5 67 19.7 66 66 SSE 18 30 29.55 1001 10 16 0.00 0.00
9:15 pm 21:15 Clear 79 26.3 68 20.2 69 69 SSE 23 37 29.56 1001 10 16 0.00 0.00
9:35 pm 21:35 Clear 78 25.8 69 20.6 73 73 SSE 21 33 29.56 1001 10 16 0.00 0.00
9:55 pm 21:55 Clear 78 25.7 69 20.5 73 73 SSE 20 31 29.58 1002 10 16 0.00 0.00
10:15 pm 22:15 Clear 78 25.6 69 20.5 73 73 SSE 24 39 29.58 1002 10 16 0.00 0.00
10:35 pm 22:35 Clear 78 25.4 69 20.3 73 73 S 26 43 29.58 1002 10 16 0.00 0.00
10:55 pm 22:55 Clear 78 25.5 68 20.1 72 72 S 24 39 29.58 1002 10 16 0.00 0.00
11:15 pm 23:15 Clear 77 25.2 68 20 73 73 S 23 37 29.59 1002 10 16 0.00 0.00
11:35 pm 23:35 Clear 77 25 68 20 74 74 SSE 23 37 29.60 1002 10 16 0.00 0.00
11:55 pm 23:55 Clear 76 24.7 68 20 75 75 S 21 33 29.60 1002 10 16 0.00 0.00

Powered by AerisWeather